| time (UTC) | temp F | wind direction | speed MPH | gust MPH | rain 1hr in | rain 24hr in | rain mn in | humidity % | barometer mb |
| 20260505214547 | 62 | 69 | 1.0 | 4.0 | 0.00 | 0.00 | 0.00 | 70 | 1017.3 |
| 20260505214010 | 62 | 78 | 1.0 | 4.0 | 0.00 | 0.00 | 0.00 | 70 | 1017.4 |
| 20260505213510 | 62 | 84 | 2.0 | 4.0 | 0.00 | 0.00 | 0.00 | 69 | 1017.3 |
| 20260505213048 | 62 | 17 | 1.0 | 4.0 | 0.00 | 0.00 | 0.00 | 69 | 1017.3 |
| 20260505212510 | 62 | 79 | 0.0 | 4.0 | 0.00 | 0.00 | 0.00 | 69 | 1017.3 |
| 20260505212012 | 62 | 71 | 2.0 | 4.0 | 0.00 | 0.00 | 0.00 | 69 | 1017.5 |
| 20260505211525 | 62 | 330 | 2.0 | 3.0 | 0.00 | 0.00 | 0.00 | 68 | 1017.5 |
| 20260505211010 | 62 | 341 | 1.0 | 3.0 | 0.00 | 0.00 | 0.00 | 68 | 1017.5 |
| 20260505210508 | 62 | 41 | 1.0 | 3.0 | 0.00 | 0.00 | 0.00 | 68 | 1017.4 |
| 20260505210029 | 62 | 16 | 0.0 | 2.0 | 0.00 | 0.00 | 0.00 | 68 | 1017.5 |
| 20260505205511 | 62 | 328 | 1.0 | 2.0 | 0.00 | 0.00 | 0.00 | 69 | 1017.5 |
| 20260505205009 | 62 | 322 | 1.0 | 3.0 | 0.00 | 0.00 | 0.00 | 69 | 1017.6 |
| 20260505204516 | 62 | 292 | 1.0 | 4.0 | 0.00 | 0.00 | 0.00 | 69 | 1017.5 |
| 20260505204007 | 62 | 13 | 2.0 | 4.0 | 0.00 | 0.00 | 0.00 | 69 | 1017.5 |
| 20260505203507 | 63 | 15 | 0.0 | 2.0 | 0.00 | 0.00 | 0.00 | 68 | 1017.6 |
| 20260505203009 | 62 | 340 | 0.0 | 3.0 | 0.00 | 0.00 | 0.00 | 69 | 1017.6 |
| 20260505202503 | 62 | 329 | 2.0 | 5.0 | 0.00 | 0.00 | 0.00 | 69 | 1017.6 |
| 20260505202004 | 62 | 58 | 2.0 | 5.0 | 0.00 | 0.00 | 0.00 | 68 | 1017.4 |
| 20260505201503 | 63 | 55 | 0.0 | 3.0 | 0.00 | 0.00 | 0.00 | 68 | 1017.4 |
| 20260505201004 | 63 | 68 | 2.0 | 4.0 | 0.00 | 0.00 | 0.00 | 68 | 1017.5 |
| 20260505200506 | 62 | 8 | 0.0 | 4.0 | 0.00 | 0.00 | 0.00 | 69 | 1017.5 |
| 20260505200008 | 63 | 353 | 1.0 | 4.0 | 0.00 | 0.00 | 0.00 | 68 | 1017.5 |
| 20260505195505 | 63 | 35 | 1.0 | 4.0 | 0.00 | 0.00 | 0.00 | 68 | 1017.5 |
| 20260505195004 | 63 | 296 | 1.0 | 3.0 | 0.00 | 0.00 | 0.00 | 68 | 1017.5 |
| 20260505194510 | 63 | 285 | 1.0 | 6.0 | 0.00 | 0.00 | 0.00 | 67 | 1017.5 |
| 20260505194010 | 63 | 231 | 0.0 | 6.0 | 0.00 | 0.00 | 0.00 | 69 | 1017.6 |
| 20260505193503 | 63 | 194 | 2.0 | 4.0 | 0.00 | 0.00 | 0.00 | 68 | 1017.6 |
| 20260505193034 | 62 | 134 | 1.0 | 4.0 | 0.00 | 0.00 | 0.00 | 70 | 1017.6 |
| 20260505192508 | 62 | 200 | 2.0 | 4.0 | 0.00 | 0.00 | 0.00 | 69 | 1017.6 |
| 20260505192006 | 62 | 340 | 2.0 | 3.0 | 0.00 | 0.00 | 0.00 | 69 | 1017.7 |
| 20260505191514 | 62 | 289 | 1.0 | 3.0 | 0.00 | 0.00 | 0.00 | 69 | 1017.6 |
| 20260505191004 | 62 | 323 | 0.0 | 2.0 | 0.00 | 0.00 | 0.00 | 70 | 1017.7 |
| 20260505190504 | 61 | 87 | 1.0 | 2.0 | 0.00 | 0.00 | 0.00 | 72 | 1017.6 |
| 20260505190025 | 60 | 288 | 0.0 | 4.0 | 0.00 | 0.00 | 0.00 | 73 | 1017.7 |
| 20260505185510 | 60 | 96 | 2.0 | 4.0 | 0.00 | 0.00 | 0.00 | 73 | 1017.6 |
| 20260505185005 | 60 | 96 | 2.0 | 3.0 | 0.00 | 0.00 | 0.00 | 73 | 1017.6 |
| 20260505184507 | 59 | 66 | 1.0 | 3.0 | 0.00 | 0.00 | 0.00 | 74 | 1017.7 |
| 20260505184007 | 59 | 89 | 1.0 | 2.0 | 0.00 | 0.00 | 0.00 | 74 | 1017.8 |
| 20260505183507 | 59 | 311 | 0.0 | 2.0 | 0.00 | 0.00 | 0.00 | 74 | 1017.8 |
| 20260505183015 | 59 | 327 | 0.0 | 2.0 | 0.00 | 0.00 | 0.00 | 74 | 1017.9 |
| 20260505182506 | 59 | 259 | 1.0 | 2.0 | 0.00 | 0.00 | 0.00 | 75 | 1017.8 |
| 20260505182007 | 59 | 306 | 1.0 | 5.0 | 0.00 | 0.00 | 0.00 | 76 | 1017.8 |
| 20260505181517 | 58 | 214 | 1.0 | 5.0 | 0.00 | 0.00 | 0.00 | 77 | 1017.7 |
| 20260505181011 | 58 | 301 | 2.0 | 5.0 | 0.00 | 0.00 | 0.00 | 76 | 1017.7 |
| 20260505180507 | 58 | 346 | 1.0 | 3.0 | 0.00 | 0.00 | 0.00 | 76 | 1017.7 |
| 20260505180030 | 58 | 318 | 1.0 | 4.0 | 0.00 | 0.00 | 0.00 | 76 | 1017.8 |
| 20260505175510 | 58 | 290 | 2.0 | 4.0 | 0.00 | 0.00 | 0.00 | 76 | 1017.7 |
| 20260505175005 | 58 | 349 | 0.0 | 4.0 | 0.00 | 0.00 | 0.00 | 77 | 1017.7 |
| 20260505174524 | 57 | 297 | 2.0 | 4.0 | 0.00 | 0.00 | 0.00 | 77 | 1017.7 |
| 20260505174007 | 58 | 300 | 3.0 | 4.0 | 0.00 | 0.00 | 0.00 | 76 | 1017.7 |
| 20260505173508 | 58 | 276 | 0.0 | 4.0 | 0.00 | 0.00 | 0.00 | 76 | 1017.7 |
| 20260505173008 | 58 | 309 | 2.0 | 4.0 | 0.00 | 0.00 | 0.00 | 76 | 1017.6 |
| 20260505172506 | 58 | 256 | 1.0 | 4.0 | 0.00 | 0.00 | 0.00 | 76 | 1017.6 |
| 20260505172011 | 58 | 320 | 1.0 | 5.0 | 0.00 | 0.00 | 0.00 | 76 | 1017.6 |
| 20260505171525 | 58 | 293 | 0.0 | 5.0 | 0.00 | 0.00 | 0.00 | 77 | 1017.5 |
| 20260505171005 | 58 | 301 | 0.0 | 3.0 | 0.00 | 0.00 | 0.00 | 76 | 1017.5 |
| 20260505170509 | 58 | 291 | 0.0 | 4.0 | 0.00 | 0.00 | 0.00 | 77 | 1017.4 |
| 20260505170018 | 57 | 304 | 0.0 | 4.0 | 0.00 | 0.00 | 0.00 | 78 | 1017.4 |
| 20260505165509 | 57 | 327 | 1.0 | 6.0 | 0.00 | 0.00 | 0.00 | 77 | 1017.4 |
| 20260505165007 | 57 | 293 | 2.0 | 6.0 | 0.00 | 0.00 | 0.00 | 76 | 1017.3 |
| 20260505164532 | 58 | 299 | 0.0 | 4.0 | 0.00 | 0.00 | 0.00 | 77 | 1017.4 |
| 20260505164008 | 57 | 222 | 0.0 | 3.0 | 0.00 | 0.00 | 0.00 | 77 | 1017.3 |
| 20260505163508 | 57 | 330 | 1.0 | 4.0 | 0.00 | 0.00 | 0.00 | 77 | 1017.3 |
| 20260505163023 | 57 | 265 | 1.0 | 4.0 | 0.00 | 0.00 | 0.00 | 77 | 1017.3 |
| 20260505162508 | 57 | 358 | 1.0 | 3.0 | 0.00 | 0.00 | 0.00 | 77 | 1017.3 |
| 20260505162007 | 57 | 293 | 0.0 | 4.0 | 0.00 | 0.00 | 0.00 | 78 | 1017.3 |
| 20260505161521 | 57 | 326 | 1.0 | 6.0 | 0.00 | 0.00 | 0.00 | 78 | 1017.2 |
| 20260505161006 | 57 | 269 | 0.0 | 6.0 | 0.00 | 0.00 | 0.00 | 79 | 1017.2 |
| 20260505160508 | 57 | 288 | 3.0 | 6.0 | 0.00 | 0.00 | 0.00 | 77 | 1017.2 |
| 20260505153027 | 55 | 305 | 2.0 | 5.0 | 0.00 | 0.00 | 0.00 | 80 | 1017.1 |
| 20260505152512 | 56 | 285 | 1.0 | 7.0 | 0.00 | 0.00 | 0.00 | 81 | 1017.1 |
| 20260505152018 | 55 | 295 | 2.0 | 7.0 | 0.00 | 0.00 | 0.00 | 81 | 1017.1 |
| 20260505151520 | 55 | 301 | 3.0 | 6.0 | 0.00 | 0.00 | 0.00 | 81 | 1017.2 |
| 20260505151013 | 55 | 316 | 2.0 | 5.0 | 0.00 | 0.00 | 0.00 | 80 | 1017.1 |
| 20260505150517 | 55 | 224 | 2.0 | 4.0 | 0.00 | 0.00 | 0.00 | 81 | 1017.0 |
| 20260505140519 | 55 | 307 | 0.0 | 2.0 | 0.00 | 0.00 | 0.00 | 81 | 1016.4 |
| 20260505125007 | 55 | 285 | 0.0 | 2.0 | 0.00 | 0.00 | 0.00 | 81 | 1016.0 |
| 20260505124528 | 55 | 284 | 0.0 | 2.0 | 0.00 | 0.00 | 0.00 | 81 | 1016.1 |
| 20260505124011 | 55 | 213 | 0.0 | 1.0 | 0.00 | 0.00 | 0.00 | 81 | 1016.0 |
| 20260505123511 | 54 | 301 | 0.0 | 1.0 | 0.00 | 0.00 | 0.00 | 81 | 1016.1 |
| 20260505123044 | 55 | 346 | 0.0 | 1.0 | 0.00 | 0.00 | 0.00 | 81 | 1016.1 |
| 20260505122508 | 55 | 327 | 0.0 | 3.0 | 0.00 | 0.00 | 0.00 | 81 | 1016.1 |
| 20260505122009 | 54 | 305 | 1.0 | 3.0 | 0.00 | 0.00 | 0.00 | 81 | 1016.1 |
| 20260505121532 | 55 | 304 | 2.0 | 3.0 | 0.00 | 0.00 | 0.00 | 81 | 1016.0 |
| 20260505121007 | 55 | 283 | 0.0 | 2.0 | 0.00 | 0.00 | 0.00 | 81 | 1016.0 |
| 20260505120510 | 54 | 275 | 0.0 | 5.0 | 0.00 | 0.00 | 0.00 | 81 | 1016.0 |
| 20260505120033 | 55 | 275 | 1.0 | 5.0 | 0.00 | 0.00 | 0.00 | 81 | 1016.0 |
| 20260505115512 | 54 | 314 | 1.0 | 2.0 | 0.00 | 0.00 | 0.00 | 81 | 1016.0 |
| 20260505115003 | 55 | 297 | 0.0 | 3.0 | 0.00 | 0.00 | 0.00 | 81 | 1016.0 |
| 20260505114503 | 55 | 281 | 1.0 | 3.0 | 0.00 | 0.00 | 0.00 | 81 | 1016.0 |
| 20260505114003 | 55 | 288 | 0.0 | 2.0 | 0.00 | 0.00 | 0.00 | 81 | 1016.0 |
| 20260505113506 | 55 | 289 | 0.0 | 2.0 | 0.00 | 0.00 | 0.00 | 81 | 1016.0 |
| 20260505113009 | 54 | 339 | 0.0 | 2.0 | 0.00 | 0.00 | 0.00 | 81 | 1016.0 |
| 20260505112507 | 54 | 304 | 1.0 | 4.0 | 0.00 | 0.00 | 0.00 | 81 | 1016.0 |
| 20260505112007 | 54 | 290 | 0.0 | 4.0 | 0.00 | 0.00 | 0.00 | 82 | 1016.0 |
| 20260505111517 | 54 | 240 | 0.0 | 2.0 | 0.00 | 0.00 | 0.00 | 82 | 1016.1 |
| 20260505111007 | 54 | 3 | 0.0 | 0.0 | 0.00 | 0.00 | 0.00 | 82 | 1016.0 |
| 20260505110507 | 54 | 323 | 0.0 | 0.0 | 0.00 | 0.00 | 0.00 | 82 | 1015.9 |
| 20260505102006 | 54 | 43 | 0.0 | 0.0 | 0.00 | 0.00 | 0.00 | 83 | 1015.6 |
| 20260505101511 | 54 | 312 | 0.0 | 1.0 | 0.00 | 0.00 | 0.00 | 83 | 1015.6 |
| 20260505101006 | 53 | 312 | 0.0 | 1.0 | 0.00 | 0.00 | 0.00 | 83 | 1015.6 |
| 20260505100508 | 53 | 312 | 0.0 | 0.0 | 0.00 | 0.00 | 0.00 | 83 | 1015.6 |
| 20260505100018 | 53 | 312 | 0.0 | 0.0 | 0.00 | 0.00 | 0.00 | 83 | 1015.5 |
| 20260505095507 | 53 | 312 | 0.0 | 0.0 | 0.00 | 0.00 | 0.00 | 83 | 1015.6 |
| 20260505095010 | 53 | 312 | 0.0 | 0.0 | 0.00 | 0.00 | 0.00 | 82 | 1015.5 |
| 20260505094518 | 54 | 313 | 0.0 | 0.0 | 0.00 | 0.00 | 0.00 | 82 | 1015.5 |
| 20260505094010 | 54 | 312 | 0.0 | 0.0 | 0.00 | 0.00 | 0.00 | 81 | 1015.4 |
| 20260505093511 | 54 | 312 | 0.0 | 1.0 | 0.00 | 0.00 | 0.00 | 81 | 1015.4 |
| 20260505093021 | 54 | 312 | 0.0 | 1.0 | 0.00 | 0.00 | 0.00 | 81 | 1015.4 |
| 20260505092512 | 54 | 312 | 0.0 | 2.0 | 0.00 | 0.00 | 0.00 | 81 | 1015.3 |
| 20260505092013 | 54 | 312 | 0.0 | 2.0 | 0.00 | 0.00 | 0.00 | 81 | 1015.3 |
| 20260505091530 | 54 | 305 | 0.0 | 0.0 | 0.00 | 0.00 | 0.00 | 81 | 1015.3 |
| 20260505091007 | 55 | 305 | 0.0 | 1.0 | 0.00 | 0.00 | 0.00 | 80 | 1015.3 |
| 20260505090506 | 55 | 305 | 0.0 | 1.0 | 0.00 | 0.00 | 0.00 | 80 | 1015.2 |
| 20260505090012 | 55 | 181 | 0.0 | 1.0 | 0.00 | 0.00 | 0.00 | 79 | 1015.2 |
| 20260505085507 | 55 | 287 | 0.0 | 1.0 | 0.00 | 0.00 | 0.00 | 79 | 1015.2 |
| 20260505085007 | 55 | 322 | 0.0 | 1.0 | 0.00 | 0.00 | 0.00 | 78 | 1015.2 |
| 20260505084519 | 56 | 325 | 0.0 | 2.0 | 0.00 | 0.00 | 0.00 | 78 | 1015.2 |
| 20260505084012 | 56 | 299 | 1.0 | 2.0 | 0.00 | 0.00 | 0.00 | 78 | 1015.2 |
| 20260505083510 | 56 | 309 | 0.0 | 2.0 | 0.00 | 0.00 | 0.00 | 78 | 1015.2 |
| 20260505083026 | 56 | 330 | 1.0 | 2.0 | 0.00 | 0.00 | 0.00 | 77 | 1015.2 |
| 20260505082507 | 57 | 293 | 1.0 | 2.0 | 0.00 | 0.00 | 0.00 | 77 | 1015.1 |
| 20260505082004 | 57 | 294 | 0.0 | 0.0 | 0.00 | 0.00 | 0.00 | 77 | 1015.0 |
| 20260505081506 | 57 | 300 | 0.0 | 0.0 | 0.00 | 0.00 | 0.00 | 76 | 1015.0 |
| 20260505081003 | 57 | 283 | 0.0 | 1.0 | 0.00 | 0.00 | 0.00 | 76 | 1015.0 |
| 20260505080507 | 57 | 298 | 0.0 | 2.0 | 0.00 | 0.00 | 0.00 | 76 | 1015.0 |
| 20260505080010 | 57 | 289 | 1.0 | 2.0 | 0.00 | 0.00 | 0.00 | 76 | 1015.0 |
| 20260505075503 | 57 | 296 | 0.0 | 3.0 | 0.00 | 0.00 | 0.00 | 76 | 1015.0 |
| 20260505075008 | 57 | 304 | 1.0 | 3.0 | 0.00 | 0.00 | 0.00 | 76 | 1014.9 |
| 20260505074516 | 57 | 310 | 0.0 | 4.0 | 0.00 | 0.00 | 0.00 | 76 | 1014.8 |
| 20260505074007 | 57 | 293 | 2.0 | 4.0 | 0.00 | 0.00 | 0.00 | 76 | 1014.7 |
| 20260505073508 | 57 | 288 | 0.0 | 4.0 | 0.00 | 0.00 | 0.00 | 76 | 1014.5 |
| 20260505073021 | 58 | 310 | 2.0 | 4.0 | 0.00 | 0.00 | 0.00 | 76 | 1014.5 |
| 20260505072507 | 58 | 290 | 1.0 | 4.0 | 0.00 | 0.00 | 0.00 | 76 | 1014.3 |
| 20260505072012 | 58 | 305 | 0.0 | 4.0 | 0.00 | 0.00 | 0.00 | 76 | 1014.2 |
| 20260505071522 | 58 | 296 | 2.0 | 5.0 | 0.00 | 0.00 | 0.00 | 76 | 1014.2 |
| 20260505071009 | 58 | 310 | 1.0 | 6.0 | 0.00 | 0.00 | 0.00 | 75 | 1014.1 |
| 20260505070508 | 58 | 286 | 1.0 | 6.0 | 0.00 | 0.00 | 0.00 | 75 | 1014.1 |
| 20260505070008 | 58 | 317 | 3.0 | 7.0 | 0.00 | 0.00 | 0.00 | 75 | 1014.1 |
| 20260505065503 | 58 | 293 | 1.0 | 7.0 | 0.00 | 0.00 | 0.00 | 75 | 1014.1 |
| 20260505065004 | 58 | 288 | 0.0 | 6.0 | 0.00 | 0.00 | 0.00 | 75 | 1013.9 |
| 20260505064511 | 59 | 307 | 1.0 | 6.0 | 0.00 | 0.00 | 0.00 | 75 | 1013.9 |
| 20260505064012 | 59 | 295 | 2.0 | 6.0 | 0.00 | 0.00 | 0.00 | 75 | 1013.8 |
| 20260505063513 | 59 | 300 | 1.0 | 5.0 | 0.00 | 0.00 | 0.00 | 74 | 1013.7 |
| 20260505063016 | 60 | 205 | 2.0 | 5.0 | 0.00 | 0.00 | 0.00 | 74 | 1013.7 |
| 20260505062508 | 60 | 263 | 2.0 | 8.0 | 0.00 | 0.00 | 0.00 | 73 | 1013.6 |
| 20260505062006 | 60 | 318 | 2.0 | 8.0 | 0.00 | 0.00 | 0.00 | 73 | 1013.6 |
| 20260505061521 | 60 | 279 | 4.0 | 8.0 | 0.00 | 0.00 | 0.00 | 72 | 1013.6 |
| 20260505061009 | 60 | 273 | 2.0 | 7.0 | 0.00 | 0.00 | 0.00 | 72 | 1013.5 |
| 20260505060511 | 61 | 307 | 2.0 | 6.0 | 0.00 | 0.00 | 0.00 | 71 | 1013.5 |
| 20260505060027 | 61 | 316 | 3.0 | 8.0 | 0.00 | 0.00 | 0.00 | 71 | 1013.5 |
| 20260505055516 | 61 | 307 | 3.0 | 8.0 | 0.00 | 0.00 | 0.00 | 70 | 1013.4 |
| 20260505055015 | 62 | 310 | 2.0 | 7.0 | 0.00 | 0.00 | 0.00 | 70 | 1013.5 |
| 20260505054526 | 62 | 79 | 1.0 | 7.0 | 0.00 | 0.00 | 0.00 | 69 | 1013.5 |
| 20260505054007 | 63 | 299 | 1.0 | 3.0 | 0.00 | 0.00 | 0.00 | 69 | 1013.4 |
| 20260505053506 | 63 | 314 | 1.0 | 3.0 | 0.00 | 0.00 | 0.00 | 69 | 1013.3 |
| 20260505053016 | 64 | 278 | 0.0 | 2.0 | 0.00 | 0.00 | 0.00 | 68 | 1013.3 |
| 20260505052513 | 65 | 303 | 0.0 | 2.0 | 0.00 | 0.00 | 0.00 | 69 | 1013.3 |
| 20260505052007 | 65 | 312 | 0.0 | 2.0 | 0.00 | 0.00 | 0.00 | 69 | 1013.2 |
| 20260505051522 | 65 | 322 | 0.0 | 2.0 | 0.00 | 0.00 | 0.00 | 68 | 1013.1 |
| 20260505051009 | 65 | 328 | 0.0 | 1.0 | 0.00 | 0.00 | 0.00 | 69 | 1013.1 |
| 20260505050511 | 65 | 328 | 0.0 | 0.0 | 0.00 | 0.00 | 0.00 | 68 | 1013.1 |
| 20260505041531 | 67 | 18 | 3.0 | 6.0 | 0.00 | 0.00 | 0.00 | 64 | 1012.3 |
| 20260505041008 | 68 | 71 | 2.0 | 8.0 | 0.00 | 0.00 | 0.00 | 64 | 1012.2 |
| 20260505040512 | 68 | 322 | 2.0 | 8.0 | 0.00 | 0.00 | 0.00 | 64 | 1012.2 |
| 20260505040020 | 68 | 340 | 2.0 | 12.0 | 0.00 | 0.00 | 0.00 | 63 | 1012.0 |
| 20260505035508 | 68 | 283 | 4.0 | 12.0 | 0.00 | 0.00 | 0.00 | 64 | 1011.9 |
| 20260505035008 | 68 | 307 | 4.0 | 7.0 | 0.00 | 0.00 | 0.00 | 65 | 1011.7 |
| 20260505034524 | 68 | 301 | 3.0 | 7.0 | 0.00 | 0.00 | 0.00 | 66 | 1011.6 |
| 20260505034013 | 69 | 264 | 4.0 | 9.0 | 0.00 | 0.00 | 0.00 | 66 | 1011.5 |
| 20260505033509 | 69 | 316 | 2.0 | 9.0 | 0.00 | 0.00 | 0.00 | 66 | 1011.5 |
| 20260505033026 | 69 | 288 | 3.0 | 9.0 | 0.00 | 0.00 | 0.00 | 66 | 1011.4 |
| 20260505032514 | 69 | 304 | 2.0 | 9.0 | 0.00 | 0.00 | 0.00 | 65 | 1011.3 |
| 20260505032011 | 70 | 302 | 2.0 | 8.0 | 0.00 | 0.00 | 0.00 | 65 | 1011.3 |
| 20260505031526 | 70 | 306 | 2.0 | 6.0 | 0.00 | 0.00 | 0.00 | 65 | 1011.3 |
| 20260505031010 | 70 | 267 | 2.0 | 6.0 | 0.00 | 0.00 | 0.00 | 65 | 1011.3 |
| 20260505030512 | 70 | 298 | 1.0 | 6.0 | 0.00 | 0.00 | 0.00 | 65 | 1011.3 |
| 20260505030017 | 70 | 311 | 2.0 | 7.0 | 0.00 | 0.00 | 0.00 | 64 | 1011.2 |
| 20260505025508 | 70 | 302 | 2.0 | 7.0 | 0.00 | 0.00 | 0.00 | 64 | 1011.2 |
| 20260505025007 | 71 | 354 | 3.0 | 6.0 | 0.00 | 0.00 | 0.00 | 64 | 1011.1 |
| 20260505024522 | 71 | 343 | 2.0 | 6.0 | 0.00 | 0.00 | 0.00 | 63 | 1011.1 |
| 20260505024007 | 71 | 300 | 1.0 | 7.0 | 0.00 | 0.00 | 0.00 | 63 | 1011.1 |
| 20260505023507 | 71 | 264 | 2.0 | 7.0 | 0.00 | 0.00 | 0.00 | 63 | 1011.0 |
| 20260505023033 | 71 | 304 | 2.0 | 6.0 | 0.00 | 0.00 | 0.00 | 62 | 1011.0 |
| 20260505022508 | 72 | 281 | 1.0 | 7.0 | 0.00 | 0.00 | 0.00 | 62 | 1010.9 |
| 20260505022011 | 72 | 262 | 3.0 | 7.0 | 0.00 | 0.00 | 0.00 | 61 | 1010.9 |
| 20260505021527 | 73 | 340 | 4.0 | 6.0 | 0.00 | 0.00 | 0.00 | 60 | 1011.0 |
| 20260505021008 | 73 | 344 | 2.0 | 6.0 | 0.00 | 0.00 | 0.00 | 60 | 1011.0 |
| 20260505020511 | 73 | 144 | 1.0 | 7.0 | 0.00 | 0.00 | 0.00 | 59 | 1011.0 |
| 20260505020026 | 73 | 305 | 1.0 | 7.0 | 0.00 | 0.00 | 0.00 | 59 | 1011.1 |
| 20260505015517 | 74 | 345 | 2.0 | 6.0 | 0.00 | 0.00 | 0.00 | 59 | 1011.1 |
| 20260505015008 | 74 | 276 | 1.0 | 7.0 | 0.00 | 0.00 | 0.00 | 59 | 1011.1 |
| 20260505014529 | 73 | 323 | 3.0 | 7.0 | 0.00 | 0.00 | 0.00 | 59 | 1011.1 |
| 20260505014008 | 74 | 293 | 4.0 | 6.0 | 0.00 | 0.00 | 0.00 | 58 | 1011.1 |
| 20260505013507 | 74 | 307 | 2.0 | 5.0 | 0.00 | 0.00 | 0.00 | 59 | 1011.2 |
| 20260505013023 | 74 | 301 | 2.0 | 6.0 | 0.00 | 0.00 | 0.00 | 59 | 1011.2 |
| 20260505012512 | 74 | 242 | 2.0 | 8.0 | 0.00 | 0.00 | 0.00 | 58 | 1011.3 |
| 20260505012011 | 73 | 319 | 2.0 | 8.0 | 0.00 | 0.00 | 0.00 | 59 | 1011.4 |
| 20260505011530 | 73 | 186 | 2.0 | 7.0 | 0.00 | 0.00 | 0.00 | 59 | 1011.4 |
| 20260505011016 | 74 | 326 | 2.0 | 7.0 | 0.00 | 0.00 | 0.00 | 59 | 1011.3 |
| 20260505010508 | 74 | 263 | 2.0 | 7.0 | 0.00 | 0.00 | 0.00 | 58 | 1011.2 |
| 20260505010026 | 74 | 290 | 2.0 | 7.0 | 0.00 | 0.00 | 0.00 | 57 | 1011.3 |
| 20260505005511 | 74 | 335 | 3.0 | 8.0 | 0.00 | 0.00 | 0.00 | 58 | 1011.4 |
| 20260505005010 | 74 | 300 | 2.0 | 8.0 | 0.00 | 0.00 | 0.00 | 58 | 1011.4 |
| 20260505004534 | 74 | 330 | 3.0 | 8.0 | 0.00 | 0.00 | 0.00 | 58 | 1011.4 |
| 20260505004007 | 74 | 272 | 3.0 | 8.0 | 0.00 | 0.00 | 0.00 | 58 | 1011.5 |
| 20260505003512 | 74 | 309 | 3.0 | 7.0 | 0.00 | 0.00 | 0.00 | 57 | 1011.5 |
| 20260505003029 | 74 | 292 | 2.0 | 8.0 | 0.00 | 0.00 | 0.00 | 57 | 1011.4 |
| 20260505002513 | 74 | 267 | 4.0 | 8.0 | 0.00 | 0.00 | 0.00 | 57 | 1011.5 |
| 20260505002008 | 74 | 285 | 3.0 | 6.0 | 0.00 | 0.00 | 0.00 | 57 | 1011.5 |
| 20260505001522 | 74 | 258 | 2.0 | 6.0 | 0.00 | 0.00 | 0.00 | 57 | 1011.5 |
| 20260505001010 | 74 | 243 | 2.0 | 6.0 | 0.00 | 0.00 | 0.00 | 57 | 1011.5 |
| 20260505000509 | 74 | 300 | 2.0 | 6.0 | 0.00 | 0.00 | 0.00 | 57 | 1011.7 |
| 20260505000030 | 74 | 322 | 3.0 | 7.0 | 0.00 | 0.00 | 0.00 | 57 | 1011.7 |
| 20260504235504 | 74 | 302 | 3.0 | 8.0 | 0.00 | 0.00 | 0.00 | 57 | 1011.7 |
| 20260504235005 | 74 | 297 | 5.0 | 8.0 | 0.00 | 0.00 | 0.00 | 56 | 1011.8 |
| 20260504234512 | 74 | 252 | 3.0 | 7.0 | 0.00 | 0.00 | 0.00 | 57 | 1011.7 |
| 20260504234004 | 74 | 300 | 3.0 | 7.0 | 0.00 | 0.00 | 0.00 | 55 | 1011.7 |
| 20260504233508 | 74 | 278 | 2.0 | 9.0 | 0.00 | 0.00 | 0.00 | 55 | 1011.8 |
| 20260504233017 | 74 | 2 | 4.0 | 9.0 | 0.00 | 0.00 | 0.00 | 55 | 1011.9 |
| 20260504232508 | 75 | 278 | 2.0 | 6.0 | 0.00 | 0.00 | 0.00 | 56 | 1011.8 |
| 20260504232011 | 74 | 292 | 2.0 | 8.0 | 0.00 | 0.00 | 0.00 | 57 | 1011.9 |
| 20260504231503 | 74 | 299 | 3.0 | 8.0 | 0.00 | 0.00 | 0.00 | 56 | 1012.0 |
| 20260504231004 | 73 | 301 | 2.0 | 8.0 | 0.00 | 0.00 | 0.00 | 57 | 1012.0 |
| 20260504230504 | 73 | 213 | 3.0 | 8.0 | 0.00 | 0.00 | 0.00 | 57 | 1012.1 |
| 20260504230014 | 73 | 233 | 4.0 | 8.0 | 0.00 | 0.00 | 0.00 | 56 | 1012.1 |
| 20260504225505 | 73 | 274 | 4.0 | 8.0 | 0.00 | 0.00 | 0.00 | 57 | 1012.2 |
| 20260504225006 | 73 | 293 | 4.0 | 8.0 | 0.00 | 0.00 | 0.00 | 55 | 1012.2 |
| 20260504224508 | 74 | 310 | 2.0 | 6.0 | 0.00 | 0.00 | 0.00 | 56 | 1012.3 |
| 20260504224005 | 73 | 256 | 2.0 | 7.0 | 0.00 | 0.00 | 0.00 | 57 | 1012.3 |
| 20260504223505 | 72 | 101 | 1.0 | 7.0 | 0.00 | 0.00 | 0.00 | 56 | 1012.3 |
| 20260504223014 | 73 | 17 | 3.0 | 5.0 | 0.00 | 0.00 | 0.00 | 55 | 1012.3 |
| 20260504222509 | 73 | 287 | 2.0 | 4.0 | 0.00 | 0.00 | 0.00 | 57 | 1012.3 |
| 20260504222009 | 72 | 76 | 1.0 | 6.0 | 0.00 | 0.00 | 0.00 | 57 | 1012.5 |
| 20260504221520 | 72 | 306 | 3.0 | 7.0 | 0.00 | 0.00 | 0.00 | 56 | 1012.5 |
| 20260504221007 | 72 | 317 | 3.0 | 7.0 | 0.00 | 0.00 | 0.00 | 57 | 1012.7 |
| 20260504220509 | 72 | 325 | 2.0 | 5.0 | 0.00 | 0.00 | 0.00 | 57 | 1012.7 |
| 20260504220024 | 72 | 204 | 3.0 | 7.0 | 0.00 | 0.00 | 0.00 | 57 | 1012.8 |
| 20260504215503 | 72 | 288 | 3.0 | 7.0 | 0.00 | 0.00 | 0.00 | 57 | 1012.8 |
| 20260504215004 | 71 | 317 | 2.0 | 7.0 | 0.00 | 0.00 | 0.00 | 59 | 1012.9 |